FW8327 Weather Reports


Display with metric or nautical units.
time (UTC)temp
F
wind
direction
speed
MPH
gust
MPH
rain 1hr
in
rain 24hr
in
rain mn
in
humidity
%
barometer
mb
20260506073426 45 145 0.0 0.0 0.00 0.00 0.00 99 1007.4
20260506072923 45 143 0.0 0.0 0.00 0.00 0.00 99 1007.5
20260506072420 45 143 0.0 0.0 0.00 0.00 0.00 99 1007.4
20260506071918 45 144 0.0 0.0 0.00 0.00 0.00 99 1007.7
20260506071416 45 139 0.0 0.0 0.00 0.00 0.00 99 1008.1
20260506070912 45 139 0.0 0.0 0.00 0.00 0.00 99 1008.2
20260506070409 45 139 0.0 0.0 0.00 0.00 0.00 99 1008.1
20260506062347 44 100 0.0 0.0 0.00 0.00 0.00 99 1007.4
20260506061843 44 109 0.0 0.0 0.00 0.00 0.00 99 1007.8
20260506061339 44 130 0.0 0.0 0.00 0.00 0.00 99 1007.8
20260506060837 44 131 0.0 0.0 0.00 0.00 0.00 99 1008.0
20260506060335 44 106 0.0 0.0 0.00 0.00 0.00 99 1008.1
20260506051307 45 73 0.0 0.0 0.00 0.00 0.00 99 1008.8
20260506050805 45 167 0.0 0.0 0.00 0.00 0.00 99 1009.3
20260506050302 45 174 0.0 0.0 0.00 0.00 0.00 99 1008.9
20260506044752 45 18 0.0 0.0 0.00 0.00 0.00 99 1008.3
20260506044250 45 100 0.0 0.0 0.00 0.00 0.00 99 1008.4
20260506043747 45 34 0.0 0.0 0.00 0.00 0.00 99 1008.2
20260506043244 46 102 0.0 0.0 0.00 0.00 0.00 99 1008.3
20260506042743 45 94 0.0 0.0 0.00 0.00 0.00 99 1008.2
20260506042242 45 32 0.0 0.0 0.00 0.00 0.00 99 1008.0
20260506041739 45 124 0.0 0.0 0.00 0.00 0.00 99 1007.9
20260506041236 45 133 0.0 0.0 0.00 0.00 0.00 99 1008.2
20260506040734 45 133 0.0 0.0 0.00 0.00 0.00 99 1008.1
20260506040231 45 120 0.0 0.0 0.00 0.00 0.00 99 1008.2
20260506035727 45 146 0.0 0.0 0.00 0.00 0.00 99 1008.4
20260506035224 45 137 0.0 0.0 0.00 0.00 0.00 99 1008.4
20260506034721 45 141 0.0 0.0 0.00 0.00 0.00 99 1008.2
20260506034218 45 140 0.0 0.0 0.00 0.00 0.00 99 1008.3
20260506033716 45 118 0.0 0.0 0.00 0.00 0.00 99 1008.3
20260506033212 45 135 0.0 0.0 0.00 0.00 0.00 99 1008.0
20260506032709 46 98 0.0 0.0 0.00 0.00 0.00 99 1008.3
20260506032206 45 39 0.0 0.0 0.00 0.00 0.00 99 1008.0
20260506031703 45 29 0.0 0.0 0.00 0.00 0.00 99 1007.9
20260506031200 45 46 0.0 0.0 0.00 0.00 0.00 99 1008.1
20260506030659 45 39 0.0 0.0 0.00 0.00 0.00 99 1008.1
20260506030155 45 81 0.0 0.0 0.00 0.00 0.00 99 1007.8
20260506025652 45 119 0.0 0.0 0.00 0.00 0.00 99 1007.7
20260506025148 45 54 0.0 0.0 0.00 0.00 0.00 99 1007.9
20260506024645 45 24 0.0 0.0 0.00 0.00 0.00 99 1007.7
20260506024142 46 98 0.0 0.0 0.00 0.00 0.00 99 1007.6
20260506023638 46 47 0.0 0.0 0.00 0.00 0.00 99 1007.7
20260506023136 46 59 0.0 0.0 0.00 0.00 0.00 99 1007.5
20260506022633 46 70 0.0 0.0 0.00 0.00 0.00 99 1008.0
20260506022130 46 83 0.0 0.0 0.00 0.00 0.00 99 1007.9
20260506021628 46 34 0.0 0.0 0.00 0.00 0.00 99 1008.1
20260506021125 46 110 0.0 0.0 0.00 0.00 0.00 99 1007.9
20260506020622 46 125 0.0 0.0 0.00 0.00 0.00 99 1008.0
20260506020120 46 82 0.0 0.0 0.00 0.00 0.00 99 1007.6
20260506015617 46 36 0.0 0.0 0.00 0.00 0.00 99 1007.4
20260506015114 46 94 0.0 0.0 0.00 0.00 0.00 99 1007.1
20260506014612 46 62 0.0 0.0 0.00 0.00 0.00 99 1007.2
20260506014107 46 87 0.0 0.0 0.00 0.00 0.00 99 1007.0
20260506013605 46 85 0.0 0.0 0.00 0.00 0.00 99 1007.0
20260506013101 46 58 0.0 0.0 0.00 0.00 0.00 99 1006.8
20260506012557 46 89 0.0 0.0 0.00 0.00 0.00 99 1006.8
20260506012054 46 76 0.0 0.0 0.00 0.00 0.00 99 1006.9
20260506011552 46 102 0.0 0.0 0.00 0.00 0.00 99 1006.8
20260506011048 46 48 0.0 0.0 0.00 0.00 0.00 99 1006.5
20260506010548 46 72 0.0 0.0 0.00 0.00 0.00 99 1006.4
20260506010044 46 59 0.0 0.0 0.00 0.00 0.00 99 1007.1
20260506005541 46 117 0.0 0.0 0.00 0.00 0.00 99 1007.1
20260506005037 46 108 0.0 0.0 0.00 0.00 0.00 99 1007.1
20260506004535 46 101 0.0 0.0 0.00 0.00 0.00 99 1007.2
20260506004031 46 135 0.0 0.0 0.00 0.00 0.00 99 1007.1
20260506003528 46 110 0.0 0.0 0.00 0.00 0.00 99 1007.0
20260506003024 46 143 0.0 0.0 0.00 0.00 0.00 99 1007.1
20260506002520 46 159 0.0 0.0 0.00 0.00 0.00 99 1007.3
20260506002016 46 124 0.0 0.0 0.00 0.00 0.00 99 1007.1
20260506001513 46 127 0.0 0.0 0.00 0.00 0.00 99 1006.9
20260506001010 46 134 0.0 0.0 0.00 0.00 0.00 99 1006.7
20260506000508 46 135 0.0 0.0 0.00 0.00 0.00 99 1006.7
20260506000005 46 129 0.0 0.0 0.00 0.00 0.00 99 1007.0
20260505235503 46 134 0.0 0.0 0.00 0.00 0.00 99 1007.3
20260505234959 46 128 0.0 0.0 0.00 0.00 0.00 99 1007.2
20260505234456 46 87 0.0 0.0 0.00 0.00 0.00 99 1007.2
20260505233953 46 88 0.0 0.0 0.00 0.00 0.00 99 1007.0
20260505233450 46 77 0.0 0.0 0.00 0.00 0.00 99 1006.9
20260505232948 46 99 0.0 0.0 0.00 0.00 0.00 99 1006.9
20260505232446 46 31 0.0 0.0 0.00 0.00 0.00 99 1006.9
20260505231942 46 68 0.0 0.0 0.00 0.00 0.00 99 1006.9
20260505231439 46 80 0.0 0.0 0.00 0.00 0.00 99 1007.0
20260505230938 46 117 0.0 0.0 0.00 0.00 0.00 99 1007.2
20260505230435 46 114 0.0 0.0 0.00 0.00 0.00 99 1007.2
20260505225931 46 94 0.0 0.0 0.00 0.00 0.00 99 1007.2
20260505225429 46 96 0.0 0.0 0.00 0.00 0.00 99 1007.4
20260505224924 46 85 0.0 0.0 0.00 0.00 0.00 99 1007.4
20260505224422 46 69 0.0 0.0 0.00 0.00 0.00 99 1007.3
20260505223919 46 53 0.0 0.0 0.00 0.00 0.00 99 1007.4
20260505223416 46 98 0.0 0.0 0.00 0.00 0.00 99 1007.2
20260505222912 46 54 0.0 0.0 0.00 0.00 0.00 99 1007.3
20260505222408 46 80 0.0 0.0 0.00 0.00 0.00 99 1007.4
20260505221904 46 48 0.0 0.0 0.00 0.00 0.00 99 1007.3
20260505221402 46 0 0.0 0.0 0.00 0.00 0.00 99 1007.8
20260505220859 46 45 0.0 0.0 0.00 0.00 0.00 99 1007.7
20260505220355 46 10 0.0 0.0 0.00 0.00 0.00 99 1007.4
20260505215853 46 9 0.0 1.0 0.00 0.00 0.00 99 1007.6
20260505215351 46 355 1.0 1.0 0.00 0.00 0.00 99 1007.5
20260505214849 47 342 1.0 2.0 0.00 0.00 0.00 99 1007.6
20260505214346 46 319 0.0 1.0 0.00 0.00 0.00 99 1007.5
20260505213843 46 11 0.0 1.0 0.00 0.00 0.00 99 1007.3
20260505213341 46 357 1.0 2.0 0.00 0.00 0.00 99 1007.4
20260505212837 47 5 1.0 2.0 0.00 0.00 0.00 99 1007.5
20260505212334 47 322 2.0 2.0 0.00 0.00 0.00 99 1007.2
20260505211830 47 349 2.0 3.0 0.00 0.00 0.00 99 1007.2
20260505211328 47 333 2.0 2.0 0.00 0.00 0.00 99 1007.4
20260505210824 48 303 2.0 2.0 0.00 0.00 0.00 99 1007.2
20260505210321 48 308 1.0 2.0 0.00 0.00 0.00 99 1007.3
20260505205818 48 352 1.0 2.0 0.00 0.00 0.00 99 1007.2
20260505205316 48 320 1.0 2.0 0.00 0.00 0.00 99 1007.3
20260505204813 48 345 1.0 2.0 0.00 0.00 0.00 99 1007.2
20260505204311 48 320 1.0 2.0 0.00 0.00 0.00 99 1007.3
20260505203808 48 313 2.0 3.0 0.00 0.00 0.00 99 1007.2
20260505203305 48 318 1.0 2.0 0.00 0.00 0.00 99 1007.3
20260505202801 48 309 2.0 2.0 0.00 0.00 0.00 99 1007.0
20260505202257 48 335 2.0 3.0 0.00 0.00 0.00 99 1007.2
20260505201754 48 323 1.0 2.0 0.00 0.00 0.00 99 1007.1
20260505201251 48 303 2.0 3.0 0.00 0.00 0.00 99 1007.0
20260505200749 49 344 2.0 2.0 0.00 0.00 0.00 99 1007.0
20260505200246 49 337 2.0 2.0 0.00 0.00 0.00 99 1006.8
20260505195741 49 328 2.0 2.0 0.00 0.00 0.00 99 1006.8
20260505195238 49 4 1.0 2.0 0.00 0.00 0.00 99 1006.8
20260505194730 49 334 1.0 2.0 0.00 0.00 0.00 99 1006.5
20260505194227 49 79 0.0 0.0 0.00 0.00 0.00 99 1006.6
20260505193722 49 328 1.0 1.0 0.00 0.00 0.00 99 1006.6
20260505193220 49 359 0.0 0.0 0.00 0.00 0.00 99 1006.6
20260505192719 50 325 1.0 2.0 0.00 0.00 0.00 99 1006.7
20260505192216 50 335 0.0 1.0 0.00 0.00 0.00 99 1006.6
20260505191714 50 346 0.0 0.0 0.00 0.00 0.00 99 1006.8
20260505191212 50 32 0.0 0.0 0.00 0.00 0.00 98 1006.5
20260505190708 50 347 0.0 0.0 0.00 0.00 0.00 98 1006.7
20260505190207 50 26 0.0 0.0 0.00 0.00 0.00 99 1006.5
20260505185705 50 15 0.0 0.0 0.00 0.00 0.00 99 1006.3
20260505185201 50 15 0.0 0.0 0.00 0.00 0.00 99 1006.5
20260505184657 50 89 0.0 0.0 0.00 0.00 0.00 99 1006.7
20260505184155 50 41 0.0 0.0 0.00 0.00 0.00 99 1006.7
20260505183651 49 71 0.0 0.0 0.00 0.00 0.00 98 1006.9
20260505183149 49 49 0.0 0.0 0.00 0.00 0.00 98 1006.8
20260505182645 49 24 0.0 0.0 0.00 0.00 0.00 97 1007.0
20260505182142 49 48 0.0 0.0 0.00 0.00 0.00 97 1006.9
20260505181638 49 33 0.0 0.0 0.00 0.00 0.00 97 1007.1
20260505181136 49 80 0.0 0.0 0.00 0.00 0.00 97 1007.2
20260505180632 49 71 0.0 0.0 0.00 0.00 0.00 97 1007.1
20260505180130 49 118 0.0 0.0 0.00 0.00 0.00 97 1007.1
20260505175625 49 126 0.0 0.0 0.00 0.00 0.00 96 1007.2
20260505175122 50 130 0.0 0.0 0.00 0.00 0.00 96 1007.3
20260505174618 50 133 0.0 0.0 0.00 0.00 0.00 96 1007.3
20260505174115 50 124 0.0 0.0 0.00 0.00 0.00 95 1007.2
20260505173612 50 132 0.0 0.0 0.00 0.00 0.00 94 1007.2
20260505173108 50 148 0.0 0.0 0.00 0.00 0.00 94 1007.3
20260505172606 50 96 0.0 0.0 0.00 0.00 0.00 94 1007.2
20260505172103 50 151 0.0 0.0 0.00 0.00 0.00 93 1007.6
20260505171557 50 134 0.0 0.0 0.00 0.00 0.00 93 1007.3
20260505171054 50 156 0.0 0.0 0.00 0.00 0.00 92 1007.2
20260505170545 50 169 0.0 0.0 0.00 0.00 0.00 92 1007.4
20260505170041 50 139 0.0 0.0 0.00 0.00 0.00 92 1007.2
20260505165531 50 114 0.0 0.0 0.00 0.00 0.00 91 1007.1
20260505165027 50 357 0.0 0.0 0.00 0.00 0.00 90 1007.2
20260505164523 50 28 0.0 0.0 0.00 0.00 0.00 89 1007.2
20260505164021 50 75 0.0 0.0 0.00 0.00 0.00 87 1007.4
20260505163519 50 15 0.0 0.0 0.00 0.00 0.00 87 1007.5
20260505163015 50 13 0.0 0.0 0.00 0.00 0.00 88 1007.6
20260505162509 51 89 0.0 0.0 0.00 0.00 0.00 91 1007.4
20260505162006 51 67 0.0 0.0 0.00 0.00 0.00 93 1007.6
20260505161502 51 35 0.0 0.0 0.00 0.00 0.00 94 1007.3
20260505160959 52 346 0.0 0.0 0.00 0.00 0.00 94 1007.6
20260505160457 51 334 0.0 0.0 0.00 0.00 0.00 94 1007.6
20260505152928 52 322 3.0 3.0 0.00 0.00 0.00 95 1007.2
20260505152420 52 327 3.0 3.0 0.00 0.00 0.00 96 1007.2
20260505151919 54 306 2.0 3.0 0.00 0.00 0.00 97 1007.4
20260505151416 54 280 3.0 3.0 0.00 0.00 0.00 99 1007.4
20260505150913 55 268 2.0 2.0 0.00 0.00 0.00 99 1007.3
20260505150410 56 236 0.0 0.0 0.00 0.00 0.00 99 1007.2
20260505140335 57 181 0.0 0.0 0.00 0.00 0.00 98 1006.5
20260505130258 57 151 0.0 0.0 0.00 0.00 0.00 97 1006.0
20260505124748 57 172 0.0 0.0 0.00 0.00 0.00 98 1005.9
20260505124245 57 215 0.0 0.0 0.00 0.00 0.00 98 1005.9
20260505123740 57 188 0.0 0.0 0.00 0.00 0.00 98 1005.8
20260505123238 56 168 0.0 0.0 0.00 0.00 0.00 98 1005.8
20260505122734 56 148 0.0 0.0 0.00 0.00 0.00 98 1006.0
20260505122231 56 167 0.0 0.0 0.00 0.00 0.00 99 1005.9
20260505121728 56 154 0.0 0.0 0.00 0.00 0.00 99 1005.7
20260505121225 56 190 0.0 0.0 0.00 0.00 0.00 99 1005.8
20260505120721 56 158 0.0 0.0 0.00 0.00 0.00 99 1005.5
20260505120217 56 150 0.0 0.0 0.00 0.00 0.00 99 1005.6
20260505115716 56 139 0.0 0.0 0.00 0.00 0.00 99 1005.3
20260505115214 56 152 0.0 0.0 0.00 0.00 0.00 99 1005.3
20260505114711 55 176 0.0 0.0 0.00 0.00 0.00 99 1005.1
20260505114207 55 151 0.0 0.0 0.00 0.00 0.00 99 1004.7
20260505113703 55 143 0.0 0.0 0.00 0.00 0.00 99 1005.1
20260505113200 55 153 0.0 0.0 0.00 0.00 0.00 99 1004.8
20260505112656 55 152 0.0 0.0 0.00 0.00 0.00 99 1004.7
20260505112155 55 156 0.0 0.0 0.00 0.00 0.00 99 1004.9
20260505111654 55 175 0.0 0.0 0.00 0.00 0.00 99 1005.2
20260505111150 55 165 0.0 0.0 0.00 0.00 0.00 99 1004.9
20260505110646 55 138 0.0 0.0 0.00 0.00 0.00 99 1004.6
20260505110144 55 124 0.0 0.0 0.00 0.00 0.00 99 1004.7
20260505102119 55 135 0.0 0.0 0.00 0.00 0.00 99 1004.6
20260505101618 55 152 0.0 0.0 0.00 0.00 0.00 99 1004.5
20260505101114 55 139 0.0 0.0 0.00 0.00 0.00 99 1004.4
20260505100610 54 155 0.0 0.0 0.00 0.00 0.00 99 1004.2
20260505100107 54 154 0.0 0.0 0.00 0.00 0.00 99 1004.0
20260505095603 55 164 0.0 0.0 0.00 0.00 0.00 99 1003.9
20260505095100 55 147 0.0 0.0 0.00 0.00 0.00 99 1003.9
20260505094556 55 171 0.0 0.0 0.00 0.00 0.00 99 1003.7
20260505094053 55 152 0.0 0.0 0.00 0.00 0.00 99 1003.8
20260505093549 55 158 0.0 0.0 0.00 0.00 0.00 99 1003.6
20260505093047 55 172 0.0 0.0 0.00 0.00 0.00 99 1003.6
20260505092544 55 157 0.0 0.0 0.00 0.00 0.00 99 1003.4
20260505092042 55 158 0.0 0.0 0.00 0.00 0.00 99 1003.5
20260505091539 55 146 0.0 0.0 0.00 0.00 0.00 99 1003.3
20260505091037 55 160 0.0 0.0 0.00 0.00 0.00 99 1003.3
20260505090535 55 209 0.0 0.0 0.00 0.00 0.00 99 1003.0
20260505090032 55 151 0.0 0.0 0.00 0.00 0.00 99 1002.8
20260505085530 55 164 0.0 0.0 0.00 0.00 0.00 99 1002.8
20260505085028 55 189 0.0 0.0 0.00 0.00 0.00 99 1002.8
20260505084526 55 146 0.0 0.0 0.00 0.00 0.00 99 1002.7
20260505084024 55 139 0.0 0.0 0.00 0.00 0.00 99 1002.2
20260505083521 55 138 0.0 0.0 0.00 0.00 0.00 99 1002.5
20260505083017 55 122 0.0 0.0 0.00 0.00 0.00 99 1002.5
20260505082513 55 172 1.0 3.0 0.00 0.00 0.00 99 1002.5
20260505082010 55 164 0.0 0.0 0.00 0.00 0.00 99 1002.4
20260505081506 55 92 0.0 0.0 0.00 0.00 0.00 99 1001.3
20260505081003 55 122 0.0 0.0 0.00 0.00 0.00 99 1002.5
20260505080500 55 168 0.0 1.0 0.00 0.00 0.00 99 1003.0
20260505075955 55 166 2.0 9.0 0.00 0.00 0.00 99 1003.0
20260505075452 55 179 0.0 1.0 0.00 0.00 0.00 99 1003.4
20260505074949 55 151 2.0 3.0 0.00 0.00 0.00 99 1002.7
20260505074447 55 149 1.0 4.0 0.00 0.00 0.00 99 1003.0